Погода в Меловом

Россия / Ульяновская область     54°07′05″N   48°19′34″E
темп.,
°C
ветер,
м/с
пор.,
м/с
влажн.,
%
обл.,
%
осадки,
мм/ч
давл.,
гПа
погр.,
м
19 апреля, пн
пн1901:00+6всв5127374 0.0 1022504
04:00+4св5107090 0.0 1023349
07:00+3всв61278100 0.0 1023496
10:00+5всв71059100 0.0 1024765
13:00+8всв71055100 0.0 10231309
16:00+7в81056100 0.0 10241210
19:00+5в7116864 0.0 10251001
22:00+4в6146988 0.0 10261013
20 апреля, вт
вт2001:00+5в6126493 0.0 1026870
04:00+3в6126729 0.0 1027625
07:00+2вюв7145821 0.0 1028662
10:00+5вюв812433 0.0 1028865
13:00+8вюв810372 0.0 10281184
16:00+9вюв7103565 0.0 10271389
19:00+8вюв61139100 0.0 10261145
22:00+6вюв71442100 0.0 1025856
21 апреля, ср
ср2101:00+4юв8164790 0.0 1024690
04:00+3юв81751100 0.0 1023694
07:00+2юв91861100 0.4 1022715
10:00+1юв92080100 0.8 1022667
13:00+1ююв92087100 0.8 1022720
16:00+2ююв91890100 1.9 1022682
19:00+2ююв81694100 1.6 1023608
22:00+2ююв61496100 3.4 1024530
22 апреля, чт
чт2201:00+2ю51196100 0.0 1024436
04:00+3ююв51197100 0.0 1024439
07:00+3ююв51197100 0.0 1024441
10:00+4ю51097100 0.1 1025419
13:00+5ю5894100 0.1 1026378
16:00+7ю4790100 0.1 1026486
19:00+6ююв4894100 0.0 1027344
22:00+5ююв4997100 0.0 1027245
23 апреля, пт
пт2301:00+5ю4796100 0.0 1027294
04:00+5ююв2495100 0.0 1027188
07:00+5ююв2495100 0.0 1027240
10:00+7ююв2384100 0.0 1027492
13:00+9ююв3376100 0.0 1026816
16:00+9вюв337168 0.1 1025829
19:00+8вюв3479100 0.0 1025513
22:00+5вюв2290100 0.0 102343